CAPE
4495 4645 4692 4713 4834 4920 4796 4590 4353 4117 4070 3932 3708 3552 3423 3129 2828 2544 2184 1685 1274 1187 991 735 912 1002 767 664 478 470 664 554 508 542 547 671 604 659 541 561 610 485 438 382 280 258 292 328 360 385 394 472 538 491 159 136 163 191 166 130 58 68 164 139 104 200 162 22 10 14 62 142 146 131 127 153 188 120 9 48 88 144 242 240 112
4511 4714 4660 4767 4775 4657 4426 4257 4170 3962 3880 3814 3614 3423 3279 2980 2722 2186 1936 1725 1294 850 901 848 978 965 716 503 476 540 645 708 568 435 563 600 653 549 450 430 544 567 467 450 380 316 304 384 382 315 429 586 733 694 234 54 47 36 16 12 23 41 39 106 120 149 303 98 10 0 20 12 56 136 78 132 192 59 5 3 9 42 285 244 130
4438 4802 4704 4703 4697 4360 4096 3853 3586 3148 3427 3425 3224 3172 3054 2890 2468 2221 1844 1377 1362 848 845 906 1024 1112 859 550 642 730 816 919 682 526 566 607 608 476 400 510 570 515 498 516 453 385 354 370 348 331 284 281 373 498 413 280 142 78 46 27 45 41 36 63 131 192 265 263 75 10 15 56 6 69 120 78 86 36 7 9 7 14 108 195 236
4186 4725 4592 4592 4172 3852 3814 3536 3213 2960 2945 2982 2861 2824 2769 2815 2530 2224 1584 868 1274 1200 942 1082 1179 1296 1047 681 721 869 896 924 754 574 788 875 730 608 611 626 597 560 564 580 465 458 468 474 462 341 303 395 446 446 335 209 184 194 174 150 131 136 128 98 110 166 178 228 320 52 14 120 6 22 68 90 8 7 11 12 11 10 37 66 149
3945 4503 4408 4065 3894 3812 3697 3392 3176 2969 2974 2717 2771 2615 2426 2163 2187 1670 1308 904 1246 1420 1330 1329 1310 1412 1063 781 726 732 744 855 750 604 691 762 783 741 777 858 844 852 728 644 547 573 521 577 438 419 442 476 482 517 347 308 288 131 119 100 73 66 42 51 59 109 118 159 296 301 125 35 12 51 75 18 7 6 16 10 8 8 20 46 18
3628 4100 3902 3746 3614 3524 3664 3198 3086 2957 2869 2674 2536 2426 2180 1714 1559 1172 1265 938 876 1012 1202 1233 1288 1286 1098 832 768 651 709 766 728 729 647 714 842 866 806 851 822 884 779 665 624 610 581 625 569 525 532 548 603 692 504 332 278 212 238 244 165 94 98 77 54 66 79 97 172 182 289 90 24 44 74 26 10 6 7 8 6 14 51 82 74
3793 4025 3724 3438 3624 3638 3772 3368 3135 2786 2688 2642 2499 2093 1805 1684 1152 924 714 582 724 698 828 963 1091 1131 1144 1061 792 658 760 810 939 1035 978 820 891 1016 907 863 968 958 908 768 540 406 534 687 719 643 602 636 698 798 813 656 463 450 391 373 416 293 256 188 48 40 52 56 46 80 123 166 113 107 38 28 12 13 37 29 46 23 48 54 114
4013 4056 3671 3446 3401 3573 3676 3295 2959 2674 2468 2508 2338 1972 2016 1530 1238 983 848 635 633 586 561 853 872 877 956 1080 990 814 800 954 1106 1062 840 849 912 1018 1197 1128 950 842 908 906 709 442 456 600 606 659 679 672 703 742 864 852 562 510 502 390 274 252 232 325 98 36 32 26 38 84 139 213 301 216 111 64 54 90 32 8 29 71 102 194 180
4302 4124 3848 3579 3369 3184 3208 3032 2855 2890 2719 2852 2728 2457 2179 1866 1316 1132 1004 726 476 416 388 454 678 1015 1038 1161 1100 890 802 923 886 772 926 1066 1134 1070 1191 1162 1108 848 672 619 572 678 549 395 420 422 300 724 711 744 802 880 915 711 546 506 454 608 610 552 186 102 80 71 117 136 88 126 176 185 100 121 92 60 85 66 100 212 189 150 232
4430 4148 3718 3307 3092 2982 2538 2850 2776 2810 2527 2571 2628 2607 2244 1809 1312 1178 1092 704 752 713 369 406 532 996 1084 1190 1089 1053 995 896 837 672 792 1036 1154 1260 1128 1057 1018 854 719 726 646 522 484 575 395 422 649 899 977 818 712 642 473 822 975 702 704 517 574 704 676 364 122 80 84 39 39 64 62 109 122 120 150 139 111 115 125 210 227 230 300
4110 3862 3670 3343 2956 2819 2332 2387 2571 2648 2626 2543 2519 2577 2272 1982 1448 1367 1311 991 963 1134 999 826 729 971 1012 982 1086 1060 1024 963 881 817 716 506 848 702 901 963 1063 986 774 746 771 621 456 438 586 758 1146 935 1271 675 676 468 59 297 203 25 395 1111 806 646 662 310 111 79 56 62 70 117 193 242 226 128 149 164 232 186 202 236 188 157 220
4014 3734 3442 3211 2873 2604 2544 2204 2134 2650 2799 2750 2539 2582 2402 2060 1677 1683 1534 1478 1387 1326 1216 1214 1244 1072 1009 971 1042 1138 1108 954 876 726 430 3 174 864 533 557 842 883 864 773 681 637 668 587 373 389 573 819 813 1382 911 423 383 254 223 214 0 0 0 601 626 518 373 142 65 117 130 162 216 248 290 247 249 256 312 388 466 464 456 291 262
3968 3784 3606 3204 2700 2599 2573 2382 2174 2279 2796 2788 2379 2282 2132 1978 1733 1602 1554 1560 1397 1607 1453 1425 1629 1463 1210 1168 1014 978 1044 906 780 522 116 0 0 232 496 406 566 840 846 786 784 742 735 716 704 492 464 944 1000 880 610 1194 1406 1114 896 639 414 237 13 0 0 531 602 329 222 224 300 291 278 294 426 451 445 386 419 476 625 528 317 325 312
3779 3578 3490 3130 2803 2601 2622 2207 2207 2142 2527 2753 2459 2285 2186 2088 1723 1225 1337 1522 1377 1550 1232 1282 1564 1545 1332 1248 1123 1045 1010 647 526 416 0 0 0 80 539 488 614 786 893 915 880 837 804 736 770 779 736 817 1049 1388 1664 1547 1480 1868 1645 1259 1318 878 524 396 265 160 240 461 656 436 416 524 582 708 760 616 422 489 519 615 487 269 384 389 418
3808 3546 3276 3012 2508 2561 2356 2315 2176 2180 2282 2655 2618 2370 2246 2156 1875 1365 1091 1078 1438 1490 1196 1600 1576 1553 1306 1204 1296 1304 1270 614 484 380 0 0 0 4 406 594 685 834 920 1040 1130 1090 994 1016 948 922 988 1183 1213 1475 2119 2099 1816 1672 1579 1464 1292 1408 1318 1133 784 760 714 631 712 648 638 688 728 792 628 400 337 393 302 199 224 282 212 202 219
3798 3269 3092 2930 2745 2311 2291 2231 2220 2217 2282 2399 2606 2388 2122 1752 1662 1511 1276 1032 880 1050 1598 1296 1434 1504 1460 1408 1222 1266 1188 673 482 369 0 0 0 16 365 588 791 953 1079 1132 1151 1057 1114 1297 1354 1404 1555 1883 1584 1333 1472 1635 1313 1078 1226 1385 1260 1200 809 416 402 386 568 544 216 348 636 641 406 406 251 105 209 270 289 180 168 202 185 179 236
3684 3363 3087 2883 2380 2305 2174 2220 2296 2337 2392 2452 2366 2194 1861 1848 1770 1682 1593 1220 748 905 1094 593 1339 1449 1323 1410 1425 1362 1381 1452 694 421 311 83 0 247 498 668 905 1200 1318 1188 1180 1440 1648 1823 2058 2054 1648 1494 1430 1284 1034 586 757 786 1016 1180 653 400 330 538 346 352 478 6 0 0 0 0 0 0 0 0 0 24 43 103 126 202 226 110 162
3787 3552 3267 2890 2470 2314 2272 2229 2264 2274 2372 2610 2533 2364 2241 1744 1814 1701 1649 1148 841 556 1000 1106 1534 1368 1129 1252 1196 1276 1627 1412 1201 874 477 36 24 628 931 1220 1456 1510 1420 1419 1462 1382 1353 1389 1414 1373 1004 1004 860 413 77 170 538 783 1113 1105 1022 947 920 876 941 1078 364 112 0 0 0 0 0 0 0 0 0 0 103 103 212 222 171 110 48
3767 3535 3251 2894 2207 2340 2344 2381 2327 2300 2458 2611 2546 2381 1987 1608 1680 1650 1504 1280 952 978 993 816 1273 1373 1268 1298 1397 1446 1497 1234 984 932 848 772 654 676 1011 1367 1457 1351 1292 1250 1235 1344 1454 1279 810 625 802 1086 572 342 0 184 674 761 1023 1012 1000 1033 985 1009 730 616 662 710 620 484 469 440 214 498 538 28 0 0 86 227 359 441 128 64 30
3828 3622 3232 2810 2212 2162 2438 2452 2390 2406 2579 2534 2252 1879 1803 1662 1542 1457 1404 1375 1019 660 864 702 1317 1220 1308 1369 1256 1511 1572 1700 2541 1127 1020 904 868 878 1280 1339 1368 1304 1324 978 1124 1312 1517 1725 1497 846 573 0 0 0 0 34 433 541 548 444 637 922 968 863 580 438 481 266 178 194 310 546 484 527 559 573 529 914 528 340 83 84 3 1 0
3752 3530 3059 2551 2364 2510 2446 2405 2382 2358 2387 2358 2006 1945 1820 1658 1547 1492 1228 949 940 916 1344 1270 1288 1102 1067 1010 1611 1512 1118 1750 2870 1223 1174 979 706 928 1138 1474 1478 1415 1389 1084 1080 1114 1205 1350 1379 630 138 0 0 0 0 0 0 367 489 489 669 475 342 345 281 104 186 140 184 267 383 462 407 402 398 351 239 143 74 45 1 0 0 0 0
3379 3134 2455 2557 2438 2472 2399 2353 2297 2279 2190 1906 1919 1894 1747 1639 1483 1389 1273 1016 1067 1303 1423 1359 1244 1195 1267 1350 1075 1542 1671 1334 1354 1284 956 957 1161 1177 1022 1400 1414 1431 1277 1193 883 992 972 913 1063 1049 697 396 0 0 0 0 0 0 436 0 0 0 33 82 107 72 90 124 225 392 405 320 248 281 94 0 0 0 0 1 0 0 0 0 0
3051 2944 2541 2671 2670 2572 2538 2430 2243 2146 1874 1854 1826 1795 1679 1558 1307 1451 1405 1490 1520 1372 1689 1437 1240 1206 1357 1316 1342 1560 1838 1956 1080 1520 1114 1161 1021 855 717 747 689 1124 1108 1124 1111 921 787 646 958 427 117 0 0 0 0 0 0 0 0 0 0 0 0 0 14 52 197 250 320 331 286 196 138 16 2 8 6 12 2 0 0 0 0 0 0
2850 2618 2495 2635 2655 2600 2470 2349 2272 2144 1826 1804 1695 1641 1498 1393 1243 1206 1159 1019 1283 1396 1689 1568 1498 1291 1079 1112 1415 1410 1337 1437 1173 954 870 738 536 417 430 482 491 642 822 953 930 762 701 683 622 406 378 0 0 0 0 0 0 0 0 0 0 0 0 8 96 233 312 290 256 121 78 25 5 4 7 11 8 2 0 0 0 0 0 0 0
2869 2398 2622 2644 2637 2447 2279 2204 2118 1998 1720 1716 1637 1498 1260 1076 1209 1222 1071 988 1300 1436 1628 1480 1376 1357 1210 1536 1538 1249 1761 1754 1175 728 469 301 297 354 409 390 412 412 431 421 560 520 452 432 382 154 77 205 251 30 0 0 0 0 0 0 0 1 71 164 304 316 290 174 124 30 6 2 8 7 10 11 4 0 0 0 0 0 0 0 0
2534 2222 2478 2437 2236 2096 1972 1876 1944 1854 1618 1577 1516 1391 1142 983 1009 924 847 1234 1502 1446 1339 1272 1042 1172 906 1330 1509 1644 1284 940 654 647 363 181 198 268 270 298 320 328 338 309 306 331 338 345 316 326 286 213 0 0 53 128 0 0 0 0 8 92 157 169 194 117 81 14 2 5 7 8 10 8 1 0 1 6 5 2 0 0 0 0 0
2174 1973 2367 2220 2183 2046 2020 1970 1845 1720 1664 1443 1468 1356 1354 962 907 1108 837 1248 1638 1409 812 898 1347 1414 1424 1438 1268 1443 758 544 750 772 806 760 743 459 156 27 204 216 206 224 260 271 266 291 341 320 232 0 0 0 15 121 0 0 0 0 79 77 127 143 48 11 12 8 7 7 8 4 0 0 0 1 2 2 0 0 0 0 0 0 0
1941 1811 1722 1902 1961 2005 1874 1811 1707 1464 1372 1300 1154 984 891 864 894 1004 979 1202 1078 702 856 1030 1210 1250 1151 1133 998 713 824 874 916 784 697 702 646 841 655 342 294 185 372 452 426 275 78 0 0 0 0 0 26 32 21 28 16 2 15 13 14 14 0 0 0 0 0 1 6 8 2 3 1 0 0 0 0 0 0 0 0 0 0 0 0
1870 1784 1706 1694 1762 1706 1683 1454 1518 1475 1391 1104 1114 939 857 990 972 1146 898 1488 2024 1208 976 1472 1346 1314 1192 1100 957 1148 1159 1208 1019 536 502 411 476 769 584 387 299 457 655 237 197 220 137 80 105 138 205 146 98 74 65 34 24 2 10 23 2 10 10 8 8 12 14 9 0 0 0 0 0 0 0 0 0 0 0 0 0 0 0 0 1
1648 1358 1380 1260 1127 1134 1428 1274 1441 1223 1048 980 983 986 836 716 662 648 240 436 711 876 1182 1976 1623 968 826 1076 1358 1308 1201 785 684 420 0 0 0 0 94 89 74 34 1 0 0 123 128 202 270 289 188 298 141 135 42 24 22 22 12 0 0 2 5 5 5 2 0 0 0 0 0 0 0 0 0 0 0 0 0 0 0 0 0 0 0
1372 891 1009 1080 1011 1229 1233 1335 1261 1307 911 892 704 704 714 422 755 696 536 464 597 755 942 873 886 718 599 938 588 724 650 583 296 0 0 0 0 0 0 0 0 0 0 0 5 88 228 248 164 76 146 122 116 58 10 5 7 12 11 14 10 3 1 0 0 0 0 0 0 0 0 0 0 0 0 0 0 0 0 0 0 0 0 2 1
1400 1174 833 1464 1422 1261 1238 1252 1012 841 855 733 618 472 251 0 0 347 558 896 1108 1132 1018 797 742 671 442 461 128 61 0 0 0 0 0 0 0 0 0 0 0 0 0 0 78 239 250 172 160 124 104 134 88 12 2 1 0 1 6 5 4 5 3 1 0 0 0 0 0 0 0 0 0 0 0 0 0 0 0 0 0 0 0 0 2
1529 1343 1510 1238 1109 990 996 881 556 555 551 525 481 392 311 284 90 14 621 1067 1087 951 916 851 443 18 218 0 0 0 0 0 0 0 0 0 0 0 0 0 0 0 0 0 29 173 223 220 238 154 34 26 15 7 12 2 2 4 4 4 1 2 0 0 0 0 0 0 0 0 0 0 0 0 0 0 0 0 0 0 0 0 0 0 0
1409 1344 1193 1256 1173 1026 811 573 640 664 558 488 466 604 699 375 616 208 527 803 859 741 367 98 0 0 0 0 0 0 0 0 0 0 0 0 0 0 0 0 0 0 0 10 43 84 97 82 39 19 16 7 3 3 5 6 6 4 3 3 0 0 0 0 0 0 0 0 0 0 0 0 0 0 0 0 0 0 0 0 0 0 0 0 0
1326 920 835 970 942 853 848 928 873 894 883 964 933 1024 962 891 530 444 438 522 338 0 0 1 0 0 0 0 0 0 0 0 0 0 0 0 0 0 0 0 0 0 0 0 0 24 37 12 7 7 7 6 3 4 3 8 7 4 0 0 0 0 0 0 0 0 0 0 0 0 0 0 0 0 0 0 0 0 0 0 0 0 0 0 0
1156 818 694 729 864 866 892 1014 1151 1267 1125 1120 987 874 702 1099 733 424 374 338 328 343 190 1 0 0 0 0 0 0 0 0 0 0 0 0 0 0 0 4 33 10 9 12 9 0 6 8 12 13 11 8 8 8 6 3 5 0 0 0 0 0 0 0 0 0 0 0 0 0 0 0 0 0 0 0 0 0 0 0 0 0 0 0 0
641 626 650 695 794 1357 1378 1461 1504 1416 1182 1272 1164 1215 1219 1236 1187 1136 1056 934 796 432 121 13 0 0 0 0 0 0 0 0 0 0 0 0 0 0 6 42 19 9 7 7 7 8 4 10 10 12 9 8 7 5 5 4 0 0 0 0 0 0 0 0 0 0 0 0 0 0 0 0 0 0 0 0 0 0 0 0 0 0 0 0 0
332 393 481 461 772 1305 1605 1635 1645 1171 1343 1316 1568 1458 1288 1146 826 745 600 1053 743 591 316 121 6 40 16 14 0 0 0 0 0 0 0 0 0 0 1 9 6 5 8 8 6 8 10 13 12 9 9 6 7 5 0 0 0 0 0 0 0 0 0 0 0 0 0 0 0 0 0 0 0 0 0 0 0 0 0 0 0 0 0 0 0
811 958 917 1075 1177 1196 1732 1545 1455 1420 1136 1482 1465 1285 1026 941 839 812 684 512 346 210 221 208 176 120 176 6 0 0 0 0 0 0 0 0 0 4 10 12 10 15 5 2 10 6 7 6 6 6 6 4 2 0 0 0 0 0 0 0 0 0 0 0 0 0 0 0 0 0 0 0 0 0 0 0 0 0 0 0 0 0 0 0 0
768 586 740 912 1016 1216 1380 1276 1307 1432 1354 1362 1030 902 796 764 899 638 523 593 406 362 284 130 168 205 115 33 43 2 0 20 35 16 5 7 8 10 9 10 10 10 12 8 7 10 6 6 4 5 7 8 6 0 0 0 0 0 0 0 0 0 0 0 0 0 0 0 0 0 0 0 0 0 0 0 0 0 0 0 0 0 0 0 0
634 742 704 812 735 982 987 898 751 1028 1017 953 1014 941 970 752 530 360 307 262 191 168 173 175 182 205 220 14 0 5 179 65 39 30 18 10 9 15 7 9 10 10 8 5 8 7 6 8 7 5 6 6 2 0 0 0 0 0 0 0 0 0 0 0 0 0 0 0 0 0 0 0 0 0 0 0 0 0 0 0 0 0 0 0 0
798 915 748 918 815 690 579 678 1110 910 966 808 748 600 336 268 216 198 228 168 142 97 107 120 188 150 41 0 0 0 50 140 88 24 14 10 9 12 8 10 10 12 10 10 10 5 6 7 4 5 4 5 1 0 0 0 0 0 0 0 0 0 0 0 0 0 0 0 0 0 0 0 0 0 0 0 0 0 0 0 0 0 0 0 0
1130 1050 956 674 537 589 832 1028 847 829 724 648 476 228 201 138 163 11 8 123 137 112 198 196 236 134 0 0 0 0 0 84 32 7 12 8 0 4 4 7 10 10 11 2 4 4 5 4 4 4 5 6 2 0 0 0 0 0 0 0 0 0 0 0 0 0 0 0 0 0 0 0 0 0 0 0 0 0 0 0 0 0 0 0 0
1174 1064 765 548 759 886 728 718 709 762 732 442 272 215 129 108 120 123 157 184 188 154 78 88 91 60 16 0 0 0 4 12 10 8 8 2 7 6 8 6 1 0 0 0 0 0 1 3 0 4 0 0 0 0 0 0 0 0 0 0 0 0 0 0 0 0 0 0 0 0 0 0 0 0 0 0 0 0 0 0 0 0 0 0 0
653 441 393 601 644 630 621 818 648 598 228 98 109 126 116 104 126 169 190 164 164 118 38 18 10 16 20 34 6 8 9 9 10 8 7 3 6 0 0 0 0 0 0 0 0 0 0 0 0 0 0 0 0 0 0 0 0 0 0 0 0 0 0 0 0 0 0 0 0 0 0 0 0 0 0 0 0 0 0 0 0 0 0 0 0
568 443 490 721 721 698 700 658 444 267 180 175 169 156 144 162 159 155 117 134 96 86 51 15 12 13 13 18 14 18 10 13 8 5 3 1 0 0 0 0 0 0 0 0 0 0 0 0 0 0 0 0 0 0 0 0 0 0 0 0 0 0 0 0 0 0 0 0 0 0 0 0 0 0 0 0 0 0 0 0 0 0 0 0 0
288 241 392 605 591 566 475 279 208 241 198 136 136 152 90 106 37 20 40 16 47 44 10 12 20 6 5 10 11 16 11 8 3 5 6 6 1 0 0 0 0 0 0 0 0 0 0 0 0 0 0 0 0 0 0 0 0 0 0 0 0 0 0 0 0 0 0 0 0 0 0 0 0 0 0 0 0 0 0 0 0 0 0 0 0
264 166 582 568 520 319 246 224 174 50 54 35 50 16 27 23 24 23 10 1 0 1 1 7 9 8 8 8 9 8 9 10 8 2 6 13 11 5 1 0 0 0 0 0 0 0 0 0 0 0 0 0 0 0 0 0 0 0 0 0 0 0 0 0 0 0 0 0 0 0 0 0 0 0 0 0 0 0 0 0 0 0 0 0 0
444 442 470 418 312 250 174 140 53 20 5 11 8 6 7 6 6 10 9 9 9 11 10 12 14 11 10 8 2 2 9 9 8 11 10 11 15 16 9 0 0 0 0 0 0 0 0 0 0 0 0 0 0 0 0 0 0 0 0 0 0 0 0 0 0 0 0 0 0 0 0 0 0 0 0 0 0 0 0 0 0 0 0 0 0
263 306 290 165 91 67 32 18 2 3 3 6 7 8 5 6 8 8 9 8 12 14 12 11 16 11 10 10 10 10 9 7 10 4 8 7 12 17 14 6 0 0 0 0 0 0 0 0 0 0 0 0 0 0 0 0 0 0 0 0 0 0 0 0 0 0 0 0 0 0 0 0 0 0 0 0 0 0 0 0 0 0 0 0 0
207 193 126 40 8 4 5 4 6 6 3 4 7 8 9 8 10 10 11 12 16 14 14 15 11 0 20 16 18 20 20 22 18 14 12 9 13 13 14 11 1 0 0 0 0 0 0 0 0 0 0 0 0 0 0 0 0 0 0 0 0 0 0 0 0 0 0 0 0 0 0 0 0 0 0 0 0 0 0 0 0 0 0 0 0
Wind_Speed
18 17 17 16 17 19 21 22 23 24 25 26 28 29 30 30 31 32 34 32 32 32 30 28 28 27 25 25 26 26 25 24 24 23 22 22 22 21 21 21 20 20 20 21 21 21 21 21 20 20 21 22 25 26 27 27 28 28 28 28 nan nan 27 25 22 21 24 nan nan nan nan 32 32 34 34 35 35 34 nan nan nan 31 31 32 32
18 18 18 18 19 20 23 25 28 27 27 29 32 35 35 35 36 38 38 37 36 35 34 32 29 29 29 28 28 28 28 26 25 25 24 24 24 24 22 21 20 20 20 21 21 22 23 23 23 22 23 24 26 27 28 nan nan nan nan nan nan nan nan 27 25 23 23 nan nan nan nan nan nan 35 nan 35 35 nan nan nan nan nan 34 34 34
18 19 20 20 22 23 26 28 30 28 28 30 33 36 36 36 38 40 40 41 41 38 37 35 32 32 34 34 32 32 30 28 27 26 26 26 26 24 23 22 21 20 21 21 21 22 22 23 24 26 26 26 27 29 30 32 33 nan nan nan nan nan nan nan 28 25 23 25 nan nan nan nan nan nan 35 nan nan nan nan nan nan nan 38 37 35
20 21 21 22 25 25 25 26 30 31 31 30 33 35 36 36 37 36 37 38 41 42 40 38 37 38 39 38 35 33 32 30 28 27 26 26 25 23 23 23 21 21 20 20 20 22 22 23 25 27 27 26 27 29 32 34 36 36 35 33 32 30 29 nan 30 29 26 25 29 nan nan 32 nan nan nan nan nan nan nan nan nan nan nan nan 36
21 23 23 26 28 27 26 25 28 30 32 33 37 39 40 38 37 35 34 36 40 38 38 38 40 41 40 38 36 34 33 31 29 27 26 26 24 24 24 24 23 22 21 20 19 20 22 24 25 27 27 25 27 30 33 36 38 38 37 37 nan nan nan nan nan 31 29 28 30 33 35 nan nan nan nan nan nan nan nan nan nan nan nan nan nan
23 24 25 27 28 28 26 25 27 30 33 34 38 40 43 43 42 39 39 40 41 40 38 36 37 38 37 37 36 36 34 31 29 27 26 26 25 25 25 25 24 24 22 21 21 22 24 25 26 27 26 25 26 30 34 37 39 39 39 39 37 nan nan nan nan nan nan nan 33 34 37 nan nan nan nan nan nan nan nan nan nan nan nan nan nan
25 26 26 26 24 24 25 27 28 30 33 32 34 38 41 41 40 40 39 37 37 36 37 37 35 34 34 36 37 37 35 31 29 28 27 26 25 25 25 25 25 26 25 23 23 24 26 28 29 29 27 26 28 31 35 38 40 41 42 42 40 37 36 34 nan nan nan nan nan nan 39 40 38 36 nan nan nan nan nan nan nan nan nan nan 35
25 25 25 23 20 21 25 31 33 33 32 33 36 39 42 40 40 39 37 33 33 35 36 38 35 33 32 34 35 36 34 32 29 28 27 26 26 26 26 25 25 27 27 26 25 25 27 29 30 31 30 30 31 34 36 39 41 43 45 42 39 37 36 34 nan nan nan nan nan nan 41 39 37 35 33 nan nan nan nan nan nan nan 41 39 34
24 24 24 23 22 23 28 32 34 35 37 37 37 39 41 42 41 40 39 36 34 36 38 38 35 33 32 33 34 34 33 31 29 27 26 26 26 26 26 25 27 28 28 27 27 28 28 29 30 30 31 32 33 35 37 39 41 42 42 40 39 38 36 33 31 31 nan nan 36 38 nan 36 34 34 nan 34 nan nan nan nan nan 42 40 36 33
25 26 27 27 27 29 32 34 36 37 38 39 39 38 39 40 41 41 41 40 38 39 40 38 35 34 34 35 34 32 30 29 28 26 25 27 28 28 26 26 28 29 29 29 28 28 28 29 30 32 34 36 38 40 42 43 44 42 40 40 40 37 33 32 32 33 33 nan nan nan nan nan nan 36 36 37 40 41 41 41 41 41 39 33 29
25 26 27 30 31 33 34 35 36 39 40 40 40 41 41 40 39 39 39 40 40 42 41 38 33 31 34 35 34 31 30 29 30 32 31 29 29 26 25 27 29 29 28 29 28 27 27 29 31 34 38 38 39 42 43 47 nan 46 42 nan 40 34 30 32 34 35 36 nan nan nan nan 34 35 38 39 40 42 42 42 42 41 40 37 32 26
27 28 30 33 34 36 37 37 38 39 41 42 43 43 42 41 40 38 38 39 39 40 40 36 31 31 33 33 32 31 29 29 35 35 32 nan 30 27 26 28 29 28 28 28 28 28 28 29 32 34 34 35 36 42 48 51 51 48 45 41 nan nan nan 37 36 36 36 36 nan 32 33 35 37 40 41 41 41 41 40 40 39 37 33 31 29
28 30 32 36 38 39 40 39 39 40 42 44 45 44 44 44 43 41 40 40 40 39 38 35 31 32 34 34 31 29 25 28 33 32 30 nan nan 29 27 27 27 27 27 27 27 28 28 30 32 33 35 40 41 40 44 52 55 50 45 40 37 39 nan nan nan 38 35 33 32 31 33 36 37 39 40 40 40 38 39 37 37 34 31 28 29
30 31 33 36 39 41 41 40 41 41 43 46 48 46 46 45 46 45 42 40 38 35 34 33 31 32 34 34 30 25 20 26 31 31 nan nan nan nan 26 27 28 27 27 27 28 27 28 29 31 33 36 37 39 44 50 50 46 46 43 41 41 45 47 45 45 42 39 36 33 32 34 37 37 36 36 38 38 38 38 36 31 28 28 28 29
34 33 36 38 41 42 42 42 42 41 44 48 49 48 48 45 46 46 42 39 37 33 33 35 33 31 33 33 30 24 20 27 31 30 nan nan nan nan 25 27 28 29 29 29 28 28 28 30 30 32 34 36 41 48 50 48 46 42 39 38 40 40 42 47 47 45 42 40 37 35 34 35 34 34 35 38 37 37 36 32 28 27 27 27 26
37 36 38 41 42 42 44 45 44 43 46 49 50 50 48 46 47 46 41 38 36 34 33 35 32 31 34 34 30 25 22 31 30 27 nan nan nan nan 27 28 28 29 31 30 28 28 30 30 32 34 35 38 46 58 52 46 43 42 40 41 41 42 42 44 46 40 36 33 32 31 31 33 38 37 38 39 38 38 36 34 32 30 29 28 26
38 39 41 45 44 45 45 46 46 45 47 49 51 51 48 47 48 45 40 36 36 36 34 34 31 34 37 34 30 26 23 31 30 27 26 nan nan 28 29 29 30 31 31 29 27 28 31 33 37 40 41 44 51 59 51 48 43 41 42 43 45 45 42 43 48 45 41 nan nan nan nan nan nan nan nan nan nan nan nan 32 30 30 28 26 26
40 42 44 47 47 46 46 47 47 47 48 49 51 50 46 46 48 45 39 36 35 35 36 31 31 37 38 32 31 28 26 31 34 30 30 nan nan 30 29 30 31 32 31 29 28 28 30 35 41 42 43 48 52 50 nan 50 44 42 43 44 45 44 43 43 42 44 42 38 nan nan nan nan nan nan nan nan nan nan 35 31 28 27 24 24 nan
40 43 46 48 47 47 47 48 48 48 48 49 51 50 47 47 48 42 36 35 34 33 34 32 31 36 36 32 32 29 26 33 40 35 36 38 34 31 30 30 31 31 31 29 27 28 32 40 45 45 46 46 45 49 nan 50 44 44 45 45 44 43 42 41 39 34 35 37 37 36 35 38 39 38 38 nan nan nan nan 32 29 28 24 nan nan
42 45 48 48 47 48 49 49 48 47 48 50 51 50 49 50 48 40 35 34 33 31 33 32 33 35 36 34 33 29 29 31 37 40 43 41 38 35 34 31 30 31 29 26 26 31 37 40 48 53 47 nan nan nan nan nan 45 44 45 45 44 42 41 40 37 36 35 34 31 29 28 30 32 34 34 35 37 38 38 32 nan nan nan nan nan
46 48 48 48 48 50 51 49 48 47 48 51 54 55 55 52 46 38 35 35 34 34 35 33 33 34 35 37 35 31 30 31 41 45 46 44 43 40 38 34 33 32 29 27 30 36 41 43 42 51 48 nan nan nan nan nan nan 46 45 44 46 47 42 36 35 39 36 34 31 30 30 33 34 34 34 34 32 31 nan nan nan nan nan nan nan
49 49 49 48 49 50 50 48 46 46 48 52 56 59 56 46 37 34 33 34 36 37 37 34 33 33 32 32 29 31 39 42 38 48 48 48 49 44 39 35 33 30 28 30 35 40 43 44 41 46 48 45 nan nan nan nan nan nan 46 nan nan nan nan nan 36 nan nan 35 32 31 31 32 33 33 nan nan nan nan nan nan nan nan nan nan nan
51 50 50 50 51 51 51 50 48 47 50 53 56 55 49 40 36 35 35 35 37 37 36 34 33 31 30 30 30 31 35 41 40 42 51 50 50 44 37 32 36 32 31 35 39 41 42 41 45 51 48 nan nan nan nan nan nan nan nan nan nan nan nan nan nan nan 36 34 32 30 30 31 31 nan nan nan nan nan nan nan nan nan nan nan nan
52 52 52 53 53 51 50 49 48 50 52 51 50 46 41 37 37 37 35 35 35 34 33 32 31 30 30 29 30 32 37 39 45 49 53 53 47 41 36 31 32 35 38 41 42 42 39 37 44 49 52 nan nan nan nan nan nan nan nan nan nan nan nan nan nan 38 37 34 32 30 nan nan nan nan nan nan nan nan nan nan nan nan nan nan nan
50 51 53 53 52 50 50 50 51 50 48 46 45 43 41 40 41 39 38 37 35 33 33 33 32 30 29 28 30 35 41 41 44 52 53 48 42 39 37 38 39 42 43 43 42 44 46 47 50 52 nan 57 56 nan nan nan nan nan nan nan nan nan nan 39 38 37 35 32 30 nan nan nan nan nan nan nan nan nan nan nan nan nan nan nan nan
46 48 48 47 47 48 49 48 48 45 41 39 42 45 43 43 42 40 39 39 38 36 34 33 31 29 27 27 33 36 40 40 42 46 43 41 40 44 46 48 47 46 42 38 38 38 38 46 52 55 55 54 nan nan nan 49 nan nan nan nan nan nan 39 38 37 35 nan nan nan nan nan nan nan nan nan nan nan nan nan nan nan nan nan nan nan
46 45 43 42 43 42 42 41 40 37 36 39 43 45 47 44 43 43 42 43 42 39 35 32 29 28 29 30 34 36 38 40 40 39 39 40 43 50 49 nan 47 44 42 40 38 38 45 46 51 54 53 nan nan nan nan 51 nan nan nan nan nan nan 39 38 nan nan nan nan nan nan nan nan nan nan nan nan nan nan nan nan nan nan nan nan nan
46 45 44 42 40 38 36 38 36 35 38 41 42 43 43 42 42 43 44 44 42 37 32 28 28 31 34 35 36 36 37 38 38 38 41 44 47 51 48 46 45 43 40 42 43 44 nan nan nan nan nan nan nan nan nan nan nan nan nan nan nan nan nan nan nan nan nan nan nan nan nan nan nan nan nan nan nan nan nan nan nan nan nan nan nan
46 46 44 42 40 38 36 38 35 36 40 41 42 42 40 40 43 45 43 41 38 31 27 31 35 37 38 38 36 35 36 37 41 48 49 48 46 45 45 44 41 39 45 43 42 47 49 nan 51 51 49 47 nan nan nan nan nan nan nan nan nan nan nan nan nan nan nan nan nan nan nan nan nan nan nan nan nan nan nan nan nan nan nan nan nan
46 45 44 43 42 41 38 39 38 40 43 43 45 46 49 47 43 39 39 39 38 33 33 37 38 37 37 38 36 36 37 46 54 57 nan nan nan nan nan nan nan nan nan nan nan 44 48 47 47 45 45 44 41 41 nan nan nan nan nan nan nan nan nan nan nan nan nan nan nan nan nan nan nan nan nan nan nan nan nan nan nan nan nan nan nan
43 44 44 42 44 43 43 43 43 42 43 44 45 45 41 38 43 44 41 36 35 36 40 41 41 38 36 39 45 49 50 53 56 nan nan nan nan nan nan nan nan nan nan nan nan nan 47 45 44 nan 40 38 37 nan nan nan nan nan nan nan nan nan nan nan nan nan nan nan nan nan nan nan nan nan nan nan nan nan nan nan nan nan nan nan nan
44 43 46 49 48 45 44 44 43 44 45 45 46 46 45 nan nan 42 43 42 43 45 43 39 38 40 42 43 44 nan nan nan nan nan nan nan nan nan nan nan nan nan nan nan nan 45 45 43 41 39 37 35 nan nan nan nan nan nan nan nan nan nan nan nan nan nan nan nan nan nan nan nan nan nan nan nan nan nan nan nan nan nan nan nan nan
45 48 50 48 48 46 45 45 44 45 46 46 47 46 44 40 nan nan 45 50 52 50 44 41 41 nan 42 nan nan nan nan nan nan nan nan nan nan nan nan nan nan nan nan nan nan 44 43 42 39 37 nan nan nan nan nan nan nan nan nan nan nan nan nan nan nan nan nan nan nan nan nan nan nan nan nan nan nan nan nan nan nan nan nan nan nan
49 48 48 49 47 46 46 47 46 47 47 47 46 46 47 45 46 49 50 48 47 46 45 nan nan nan nan nan nan nan nan nan nan nan nan nan nan nan nan nan nan nan nan nan nan nan nan nan nan nan nan nan nan nan nan nan nan nan nan nan nan nan nan nan nan nan nan nan nan nan nan nan nan nan nan nan nan nan nan nan nan nan nan nan nan
48 50 52 49 48 48 48 49 48 49 48 48 48 48 49 49 50 49 48 48 46 nan nan nan nan nan nan nan nan nan nan nan nan nan nan nan nan nan nan nan nan nan nan nan nan nan nan nan nan nan nan nan nan nan nan nan nan nan nan nan nan nan nan nan nan nan nan nan nan nan nan nan nan nan nan nan nan nan nan nan nan nan nan nan nan
47 47 47 47 47 48 49 49 50 50 50 49 48 47 46 46 47 46 46 45 44 44 44 nan nan nan nan nan nan nan nan nan nan nan nan nan nan nan nan nan nan nan nan nan nan nan nan nan nan nan nan nan nan nan nan nan nan nan nan nan nan nan nan nan nan nan nan nan nan nan nan nan nan nan nan nan nan nan nan nan nan nan nan nan nan
45 46 47 47 48 50 51 51 51 51 50 49 47 46 44 44 43 43 43 41 43 45 47 nan nan nan nan nan nan nan nan nan nan nan nan nan nan nan nan nan nan nan nan nan nan nan nan nan nan nan nan nan nan nan nan nan nan nan nan nan nan nan nan nan nan nan nan nan nan nan nan nan nan nan nan nan nan nan nan nan nan nan nan nan nan
45 46 47 49 48 51 52 51 53 54 49 47 46 45 45 44 43 44 44 45 46 47 47 46 nan nan nan nan nan nan nan nan nan nan nan nan nan nan nan nan nan nan nan nan nan nan nan nan nan nan nan nan nan nan nan nan nan nan nan nan nan nan nan nan nan nan nan nan nan nan nan nan nan nan nan nan nan nan nan nan nan nan nan nan nan
49 54 54 53 50 50 51 51 51 48 47 46 46 46 46 44 44 44 44 45 44 43 42 41 39 38 40 nan nan nan nan nan nan nan nan nan nan nan nan nan nan nan nan nan nan nan nan nan nan nan nan nan nan nan nan nan nan nan nan nan nan nan nan nan nan nan nan nan nan nan nan nan nan nan nan nan nan nan nan nan nan nan nan nan nan
49 50 51 50 49 50 50 50 48 47 46 45 45 45 45 44 43 43 42 41 39 38 37 36 35 36 42 nan nan nan nan nan nan nan nan nan nan nan nan nan nan nan nan nan nan nan nan nan nan nan nan nan nan nan nan nan nan nan nan nan nan nan nan nan nan nan nan nan nan nan nan nan nan nan nan nan nan nan nan nan nan nan nan nan nan
49 50 51 49 48 48 48 48 47 47 46 46 46 45 44 43 42 39 38 37 35 35 34 35 36 38 41 nan nan nan 38 nan nan nan nan nan nan nan nan nan nan nan nan nan nan nan nan nan nan nan nan nan nan nan nan nan nan nan nan nan nan nan nan nan nan nan nan nan nan nan nan nan nan nan nan nan nan nan nan nan nan nan nan nan nan
45 48 48 48 48 46 47 47 49 49 49 48 47 46 45 41 39 37 36 35 36 nan 36 37 39 43 nan nan nan nan nan 34 nan nan nan nan nan nan nan nan nan nan nan nan nan nan nan nan nan nan nan nan nan nan nan nan nan nan nan nan nan nan nan nan nan nan nan nan nan nan nan nan nan nan nan nan nan nan nan nan nan nan nan nan nan
44 45 46 47 46 46 46 48 48 48 47 46 46 44 41 38 36 nan nan 33 35 35 37 39 40 42 nan nan nan nan nan nan nan nan nan nan nan nan nan nan nan nan nan nan nan nan nan nan nan nan nan nan nan nan nan nan nan nan nan nan nan nan nan nan nan nan nan nan nan nan nan nan nan nan nan nan nan nan nan nan nan nan nan nan nan
44 45 45 46 46 46 46 45 45 44 42 42 40 36 33 31 31 31 32 34 36 38 nan nan nan nan nan nan nan nan nan nan nan nan nan nan nan nan nan nan nan nan nan nan nan nan nan nan nan nan nan nan nan nan nan nan nan nan nan nan nan nan nan nan nan nan nan nan nan nan nan nan nan nan nan nan nan nan nan nan nan nan nan nan nan
42 42 44 43 43 42 43 42 41 40 39 nan 32 32 30 31 33 34 36 39 40 40 nan nan nan nan nan nan nan nan nan nan nan nan nan nan nan nan nan nan nan nan nan nan nan nan nan nan nan nan nan nan nan nan nan nan nan nan nan nan nan nan nan nan nan nan nan nan nan nan nan nan nan nan nan nan nan nan nan nan nan nan nan nan nan
40 40 40 41 41 40 40 39 37 37 35 34 35 35 35 36 38 39 39 39 nan nan nan nan nan nan nan nan nan nan nan nan nan nan nan nan nan nan nan nan nan nan nan nan nan nan nan nan nan nan nan nan nan nan nan nan nan nan nan nan nan nan nan nan nan nan nan nan nan nan nan nan nan nan nan nan nan nan nan nan nan nan nan nan nan
37 37 36 35 36 36 35 36 35 36 37 38 38 38 nan 37 nan nan nan nan nan nan nan nan nan nan nan nan nan nan nan nan nan nan nan nan nan nan nan nan nan nan nan nan nan nan nan nan nan nan nan nan nan nan nan nan nan nan nan nan nan nan nan nan nan nan nan nan nan nan nan nan nan nan nan nan nan nan nan nan nan nan nan nan nan
33 32 31 32 33 33 35 34 35 nan nan nan nan nan nan nan nan nan nan nan nan nan nan nan nan nan nan nan nan nan nan nan nan nan nan nan nan nan nan nan nan nan nan nan nan nan nan nan nan nan nan nan nan nan nan nan nan nan nan nan nan nan nan nan nan nan nan nan nan nan nan nan nan nan nan nan nan nan nan nan nan nan nan nan nan
30 30 30 30 30 30 31 31 nan nan nan nan nan nan nan nan nan nan nan nan nan nan nan nan nan nan nan nan nan nan nan nan nan nan nan nan nan nan nan nan nan nan nan nan nan nan nan nan nan nan nan nan nan nan nan nan nan nan nan nan nan nan nan nan nan nan nan nan nan nan nan nan nan nan nan nan nan nan nan nan nan nan nan nan nan
28 28 28 28 nan nan nan nan nan nan nan nan nan nan nan nan nan nan nan nan nan nan nan nan nan nan nan nan nan nan nan nan nan nan nan nan nan nan nan nan nan nan nan nan nan nan nan nan nan nan nan nan nan nan nan nan nan nan nan nan nan nan nan nan nan nan nan nan nan nan nan nan nan nan nan nan nan nan nan nan nan nan nan nan nan
27 27 28 nan nan nan nan nan nan nan nan nan nan nan nan nan nan nan nan nan nan nan nan nan nan nan nan nan nan nan nan nan nan nan nan nan nan nan nan nan nan nan nan nan nan nan nan nan nan nan nan nan nan nan nan nan nan nan nan nan nan nan nan nan nan nan nan nan nan nan nan nan nan nan nan nan nan nan nan nan nan nan nan nan nan
Wind_Direction
309 304 298 300 297 298 300 303 310 310 313 314 314 316 315 314 314 313 309 309 307 308 312 314 310 306 305 304 305 306 309 310 307 305 305 305 305 303 301 304 309 309 309 310 311 307 303 302 306 314 321 328 331 333 333 332 329 326 323 319 nan nan 307 304 303 300 298 nan nan nan nan 296 298 296 295 295 297 298 nan nan nan 301 302 302 301
303 297 294 293 301 306 315 319 318 312 309 311 318 320 317 314 313 311 311 310 309 308 310 309 308 306 303 301 301 303 305 305 304 302 304 305 306 302 302 306 309 311 310 309 311 310 307 303 300 301 308 318 325 330 330 nan nan nan nan nan nan nan nan 301 298 296 296 nan nan nan nan nan nan 294 nan 292 293 nan nan nan nan nan 299 297 297
297 292 293 301 314 323 328 327 323 322 317 317 325 324 321 318 314 312 310 308 306 306 305 303 303 305 302 299 299 302 304 304 302 300 302 305 303 299 298 301 305 307 309 310 310 308 309 305 301 299 300 307 316 323 325 327 328 nan nan nan nan nan nan nan 295 293 293 294 nan nan nan nan nan nan 290 nan nan nan nan nan nan nan 293 293 293
291 293 302 320 331 328 326 324 327 330 330 325 331 329 323 318 313 313 313 310 306 304 303 301 301 304 304 300 299 302 305 304 301 301 302 303 301 297 296 299 302 304 305 307 307 307 308 307 304 302 300 303 309 316 321 324 327 325 324 321 319 316 309 nan 297 291 289 290 293 nan nan 289 nan nan nan nan nan nan nan nan nan nan nan nan 291
296 305 321 333 327 324 325 324 326 330 331 330 333 328 320 314 311 313 316 316 311 311 307 303 302 304 304 301 298 302 305 304 302 302 301 300 300 296 296 299 303 305 305 304 305 306 306 307 306 305 303 304 308 314 317 322 324 324 324 322 nan nan nan nan nan 293 289 289 290 292 290 nan nan nan nan nan nan nan nan nan nan nan nan nan nan
309 320 330 331 328 331 325 321 323 331 334 335 337 333 325 327 327 326 322 320 322 324 320 315 309 307 306 303 300 302 303 301 302 302 301 299 297 296 297 300 303 305 305 305 306 306 307 310 311 310 307 306 309 314 318 321 322 324 324 321 319 nan nan nan nan nan nan nan 290 291 292 nan nan nan nan nan nan nan nan nan nan nan nan nan nan
314 322 328 333 329 329 321 315 321 338 342 337 337 336 334 340 338 333 329 325 323 325 324 323 318 313 311 308 306 305 302 299 299 299 298 297 296 297 299 300 304 306 306 307 308 310 312 313 314 314 311 309 312 315 317 320 321 323 322 320 318 317 313 307 nan nan nan nan nan nan 292 295 294 290 nan nan nan nan nan nan nan nan nan nan 286
318 325 331 333 333 323 312 315 329 340 338 336 338 338 337 338 335 329 325 326 328 328 325 325 325 321 318 313 310 308 304 300 299 297 295 295 296 299 300 301 305 309 308 307 308 309 312 314 315 315 312 310 313 315 317 318 321 322 320 318 317 317 312 305 nan nan nan nan nan nan 294 296 297 294 290 nan nan nan nan nan nan nan 288 288 287
318 326 328 327 324 323 320 324 330 329 330 334 336 337 337 336 334 330 327 327 327 328 325 326 326 322 318 312 308 309 309 303 297 295 294 297 298 299 299 301 306 308 307 305 305 306 309 312 313 312 311 309 310 311 313 313 318 320 318 317 316 313 308 302 300 299 nan nan 299 299 nan 298 296 292 nan 291 nan nan nan nan nan 289 288 289 289
318 324 326 323 323 328 331 325 325 325 329 335 337 337 335 334 334 332 330 328 322 320 321 323 325 322 316 311 308 309 308 300 295 298 292 291 298 298 297 299 304 305 304 302 302 304 308 309 307 307 303 305 309 315 319 322 322 321 317 314 314 311 306 304 305 303 301 nan nan nan nan nan nan 293 292 293 295 297 296 292 289 286 287 288 287
327 327 322 318 325 328 330 329 323 325 329 333 334 335 335 334 333 331 327 323 318 313 314 317 320 319 317 312 311 310 306 298 298 297 295 293 294 298 296 299 304 305 303 301 299 299 301 303 301 302 305 307 311 316 321 324 nan 324 323 nan 314 310 309 309 308 305 303 nan nan nan nan 291 293 295 296 295 296 294 292 290 289 288 289 289 283
321 321 320 322 329 329 326 327 326 325 327 330 333 333 332 333 332 328 323 318 311 308 311 312 313 315 314 313 311 308 302 299 299 301 300 nan 300 301 303 304 306 305 302 299 296 296 298 297 297 297 300 305 307 314 322 325 324 324 324 322 nan nan nan 311 307 304 303 302 nan 298 294 293 295 298 298 296 293 292 292 291 292 291 291 290 282
320 323 327 331 334 331 326 327 328 327 327 329 329 329 330 330 328 326 324 318 311 308 307 309 308 311 312 311 308 302 295 297 303 304 305 nan nan 313 311 313 311 308 303 299 295 293 293 294 295 296 297 304 309 317 318 317 320 324 323 320 317 315 nan nan nan 312 305 304 303 301 298 297 299 299 297 295 293 295 292 293 294 293 290 284 276
318 324 329 333 332 331 326 327 325 328 329 326 327 329 328 328 328 325 322 316 311 306 305 308 306 308 310 309 303 295 292 294 303 305 nan nan nan nan 316 319 316 312 306 299 295 294 294 294 295 296 299 304 311 316 316 315 314 314 313 311 310 315 320 322 322 321 314 306 305 302 302 303 303 300 297 297 297 295 294 295 291 286 281 278 272
314 319 324 327 328 328 328 326 325 325 327 325 325 325 326 328 324 323 319 316 312 304 305 305 305 307 308 307 300 289 281 292 300 304 nan nan nan nan 315 316 314 310 307 304 299 296 293 292 292 294 298 306 311 311 313 312 311 311 310 310 310 310 310 311 313 312 308 307 307 307 306 306 304 302 300 298 296 295 295 294 288 281 277 277 281
311 314 317 319 321 325 326 327 323 321 324 326 323 322 325 328 321 317 313 309 306 303 301 300 305 306 306 303 296 286 276 290 296 303 nan nan nan nan 311 311 310 307 305 303 298 293 291 290 291 295 299 305 311 309 311 311 310 311 313 313 312 309 306 311 315 315 311 304 301 302 302 294 290 296 295 295 296 297 296 296 292 286 283 283 285
309 311 313 314 319 321 323 323 321 319 321 323 326 324 326 326 319 315 311 309 308 305 302 305 306 305 304 298 289 280 269 281 293 298 299 nan nan 307 308 308 308 307 304 300 294 292 290 293 295 296 300 308 309 309 310 308 310 313 314 312 309 310 313 311 314 316 310 nan nan nan nan nan nan nan nan nan nan nan nan 295 295 292 287 283 284
304 306 309 313 315 317 318 318 316 316 317 320 322 322 321 320 318 313 310 307 306 306 303 304 305 304 302 290 280 276 269 273 285 287 289 nan nan 303 303 306 308 305 301 296 291 292 296 301 301 302 306 309 310 312 nan 310 312 313 312 312 312 312 311 310 307 307 313 312 nan nan nan nan nan nan nan nan nan nan 305 305 301 296 291 285 nan
301 305 308 310 313 314 314 314 313 314 316 317 318 319 318 315 313 308 304 303 304 304 307 311 310 301 293 280 268 267 261 266 279 282 286 291 296 298 301 304 306 303 297 293 293 296 300 304 309 307 307 309 304 304 nan 312 313 313 312 311 312 312 309 306 305 303 303 306 309 309 311 316 315 312 311 nan nan nan nan 315 309 303 295 nan nan
299 301 304 307 309 310 310 310 311 312 311 312 314 315 312 310 308 305 304 305 306 307 309 311 307 298 283 270 265 265 260 255 271 283 283 284 293 295 298 302 303 300 294 290 294 303 307 306 307 313 314 nan nan nan nan nan 312 312 312 310 310 311 305 303 299 296 298 301 303 300 299 300 304 308 308 308 312 317 318 316 nan nan nan nan nan
297 299 301 304 305 307 307 309 310 310 310 309 309 311 310 307 302 298 301 306 308 308 306 304 298 291 280 269 261 260 258 260 272 282 280 281 288 291 292 297 298 294 291 292 300 308 310 310 306 310 316 nan nan nan nan nan nan 309 309 311 302 297 295 299 297 300 303 305 304 301 299 301 304 306 305 305 305 305 nan nan nan nan nan nan nan
295 296 299 299 300 302 306 307 306 305 308 307 307 306 302 298 297 301 304 308 312 310 305 297 287 281 278 275 274 271 271 272 276 280 280 281 284 288 285 291 287 289 289 298 306 310 310 307 304 303 309 311 nan nan nan nan nan nan 305 nan nan nan nan nan 297 nan nan 306 303 300 297 299 302 303 nan nan nan nan nan nan nan nan nan nan nan
293 296 299 299 297 298 300 303 302 303 305 307 308 303 298 296 298 300 307 310 311 307 298 289 284 284 284 280 276 279 281 281 283 283 288 288 286 287 287 284 273 287 302 308 310 309 306 304 299 299 302 nan nan nan nan nan nan nan nan nan nan nan nan nan nan nan 307 307 302 300 298 299 301 nan nan nan nan nan nan nan nan nan nan nan nan
291 293 295 296 296 297 299 301 303 302 304 306 305 301 298 299 299 302 308 309 308 302 295 290 290 293 291 285 284 286 287 282 284 281 287 290 289 290 292 293 291 303 309 313 309 305 302 297 294 296 299 nan nan nan nan nan nan nan nan nan nan nan nan nan nan 307 307 307 307 304 nan nan nan nan nan nan nan nan nan nan nan nan nan nan nan
293 293 292 293 295 295 296 297 300 301 302 305 303 299 303 303 304 307 309 307 303 298 293 290 291 293 291 289 290 294 291 284 283 286 290 292 289 289 292 299 304 306 308 309 303 292 288 291 295 299 nan 302 305 nan nan nan nan nan nan nan nan nan nan 303 304 306 307 306 305 nan nan nan nan nan nan nan nan nan nan nan nan nan nan nan nan
290 290 290 291 293 295 297 299 299 299 302 305 305 299 301 302 304 306 307 304 300 296 290 288 293 296 296 294 296 293 288 290 293 291 290 290 294 302 306 307 308 307 306 300 290 293 293 295 297 301 303 303 nan nan nan 304 nan nan nan nan nan nan 303 303 304 306 nan nan nan nan nan nan nan nan nan nan nan nan nan nan nan nan nan nan nan
288 288 291 295 298 300 300 297 296 295 298 298 296 295 297 303 305 305 306 302 297 294 295 298 298 298 295 294 292 290 292 296 295 293 294 298 304 305 305 nan 306 307 305 305 306 304 302 302 301 301 299 nan nan nan nan 298 nan nan nan nan nan nan 305 306 nan nan nan nan nan nan nan nan nan nan nan nan nan nan nan nan nan nan nan nan nan
287 288 292 295 297 299 300 293 291 294 293 293 295 296 298 299 301 303 301 296 295 294 298 300 301 299 300 299 295 293 295 293 294 297 300 303 303 304 303 303 304 304 305 304 304 301 nan nan nan nan nan nan nan nan nan nan nan nan nan nan nan nan nan nan nan nan nan nan nan nan nan nan nan nan nan nan nan nan nan nan nan nan nan nan nan
284 286 289 292 292 291 292 292 292 291 290 285 280 278 283 293 299 294 279 278 279 288 298 298 302 304 303 300 297 293 289 290 288 283 286 286 289 297 303 305 302 301 291 284 294 299 301 nan 308 310 310 309 nan nan nan nan nan nan nan nan nan nan nan nan nan nan nan nan nan nan nan nan nan nan nan nan nan nan nan nan nan nan nan nan nan
283 286 290 292 292 293 291 290 289 288 288 287 288 286 281 279 271 276 276 261 256 255 273 294 295 296 298 289 279 280 283 283 286 285 nan nan nan nan nan nan nan nan nan nan nan 299 306 308 309 309 308 307 305 304 nan nan nan nan nan nan nan nan nan nan nan nan nan nan nan nan nan nan nan nan nan nan nan nan nan nan nan nan nan nan nan
284 287 290 291 289 291 290 290 290 288 289 291 291 291 291 280 268 264 262 258 259 271 281 282 278 275 279 288 280 274 277 284 286 nan nan nan nan nan nan nan nan nan nan nan nan nan 307 309 309 nan 304 304 303 nan nan nan nan nan nan nan nan nan nan nan nan nan nan nan nan nan nan nan nan nan nan nan nan nan nan nan nan nan nan nan nan
286 288 286 280 279 284 288 288 289 288 289 291 292 292 289 nan nan 269 268 263 269 281 284 276 269 269 268 272 282 nan nan nan nan nan nan nan nan nan nan nan nan nan nan nan nan 306 307 307 305 302 300 299 nan nan nan nan nan nan nan nan nan nan nan nan nan nan nan nan nan nan nan nan nan nan nan nan nan nan nan nan nan nan nan nan nan
286 283 282 287 285 281 284 286 288 289 290 291 291 291 290 288 nan nan 280 277 281 283 279 271 269 nan 270 nan nan nan nan nan nan nan nan nan nan nan nan nan nan nan nan nan nan 306 305 303 300 298 nan nan nan nan nan nan nan nan nan nan nan nan nan nan nan nan nan nan nan nan nan nan nan nan nan nan nan nan nan nan nan nan nan nan nan
285 287 288 288 289 289 290 290 290 289 289 291 292 295 296 294 291 292 292 291 287 282 276 nan nan nan nan nan nan nan nan nan nan nan nan nan nan nan nan nan nan nan nan nan nan nan nan nan nan nan nan nan nan nan nan nan nan nan nan nan nan nan nan nan nan nan nan nan nan nan nan nan nan nan nan nan nan nan nan nan nan nan nan nan nan
286 285 288 288 288 288 288 288 289 289 291 292 293 293 290 291 291 292 293 294 294 nan nan nan nan nan nan nan nan nan nan nan nan nan nan nan nan nan nan nan nan nan nan nan nan nan nan nan nan nan nan nan nan nan nan nan nan nan nan nan nan nan nan nan nan nan nan nan nan nan nan nan nan nan nan nan nan nan nan nan nan nan nan nan nan
286 286 287 288 288 288 288 289 289 291 292 291 291 289 291 292 293 294 294 294 294 294 293 nan nan nan nan nan nan nan nan nan nan nan nan nan nan nan nan nan nan nan nan nan nan nan nan nan nan nan nan nan nan nan nan nan nan nan nan nan nan nan nan nan nan nan nan nan nan nan nan nan nan nan nan nan nan nan nan nan nan nan nan nan nan
285 285 286 287 287 287 287 288 290 291 292 292 292 292 294 294 294 293 290 289 290 292 293 nan nan nan nan nan nan nan nan nan nan nan nan nan nan nan nan nan nan nan nan nan nan nan nan nan nan nan nan nan nan nan nan nan nan nan nan nan nan nan nan nan nan nan nan nan nan nan nan nan nan nan nan nan nan nan nan nan nan nan nan nan nan
280 282 286 289 289 287 288 289 287 289 292 292 293 294 293 292 291 289 290 289 290 292 293 293 nan nan nan nan nan nan nan nan nan nan nan nan nan nan nan nan nan nan nan nan nan nan nan nan nan nan nan nan nan nan nan nan nan nan nan nan nan nan nan nan nan nan nan nan nan nan nan nan nan nan nan nan nan nan nan nan nan nan nan nan nan
282 275 275 277 284 288 288 288 290 292 292 293 293 293 293 292 291 291 290 291 293 293 292 292 293 292 291 nan nan nan nan nan nan nan nan nan nan nan nan nan nan nan nan nan nan nan nan nan nan nan nan nan nan nan nan nan nan nan nan nan nan nan nan nan nan nan nan nan nan nan nan nan nan nan nan nan nan nan nan nan nan nan nan nan nan
282 285 285 286 287 286 288 290 291 292 292 291 291 291 291 291 291 289 290 290 291 291 291 291 291 290 291 nan nan nan nan nan nan nan nan nan nan nan nan nan nan nan nan nan nan nan nan nan nan nan nan nan nan nan nan nan nan nan nan nan nan nan nan nan nan nan nan nan nan nan nan nan nan nan nan nan nan nan nan nan nan nan nan nan nan
283 283 287 289 287 289 289 291 292 291 291 290 289 290 289 288 286 287 288 289 290 291 291 291 291 292 290 nan nan nan 290 nan nan nan nan nan nan nan nan nan nan nan nan nan nan nan nan nan nan nan nan nan nan nan nan nan nan nan nan nan nan nan nan nan nan nan nan nan nan nan nan nan nan nan nan nan nan nan nan nan nan nan nan nan nan
285 287 289 289 290 290 290 290 288 287 287 288 289 289 288 288 287 287 287 289 289 nan 289 290 289 286 nan nan nan nan nan 288 nan nan nan nan nan nan nan nan nan nan nan nan nan nan nan nan nan nan nan nan nan nan nan nan nan nan nan nan nan nan nan nan nan nan nan nan nan nan nan nan nan nan nan nan nan nan nan nan nan nan nan nan nan
286 287 288 288 289 288 287 285 286 287 287 288 288 285 285 286 287 nan nan 290 291 292 292 292 292 290 nan nan nan nan nan nan nan nan nan nan nan nan nan nan nan nan nan nan nan nan nan nan nan nan nan nan nan nan nan nan nan nan nan nan nan nan nan nan nan nan nan nan nan nan nan nan nan nan nan nan nan nan nan nan nan nan nan nan nan
286 284 285 285 283 283 284 285 285 285 286 284 284 286 286 286 287 290 292 293 294 294 nan nan nan nan nan nan nan nan nan nan nan nan nan nan nan nan nan nan nan nan nan nan nan nan nan nan nan nan nan nan nan nan nan nan nan nan nan nan nan nan nan nan nan nan nan nan nan nan nan nan nan nan nan nan nan nan nan nan nan nan nan nan nan
284 285 285 286 286 286 284 284 283 283 282 nan 285 283 286 289 290 291 292 293 294 294 nan nan nan nan nan nan nan nan nan nan nan nan nan nan nan nan nan nan nan nan nan nan nan nan nan nan nan nan nan nan nan nan nan nan nan nan nan nan nan nan nan nan nan nan nan nan nan nan nan nan nan nan nan nan nan nan nan nan nan nan nan nan nan
282 282 284 284 285 284 284 284 285 284 284 281 282 286 290 291 290 290 290 291 nan nan nan nan nan nan nan nan nan nan nan nan nan nan nan nan nan nan nan nan nan nan nan nan nan nan nan nan nan nan nan nan nan nan nan nan nan nan nan nan nan nan nan nan nan nan nan nan nan nan nan nan nan nan nan nan nan nan nan nan nan nan nan nan nan
283 284 286 288 287 286 285 285 286 284 283 281 284 286 nan 288 nan nan nan nan nan nan nan nan nan nan nan nan nan nan nan nan nan nan nan nan nan nan nan nan nan nan nan nan nan nan nan nan nan nan nan nan nan nan nan nan nan nan nan nan nan nan nan nan nan nan nan nan nan nan nan nan nan nan nan nan nan nan nan nan nan nan nan nan nan
288 292 293 291 289 289 287 287 284 nan nan nan nan nan nan nan nan nan nan nan nan nan nan nan nan nan nan nan nan nan nan nan nan nan nan nan nan nan nan nan nan nan nan nan nan nan nan nan nan nan nan nan nan nan nan nan nan nan nan nan nan nan nan nan nan nan nan nan nan nan nan nan nan nan nan nan nan nan nan nan nan nan nan nan nan
294 293 291 291 290 289 287 286 nan nan nan nan nan nan nan nan nan nan nan nan nan nan nan nan nan nan nan nan nan nan nan nan nan nan nan nan nan nan nan nan nan nan nan nan nan nan nan nan nan nan nan nan nan nan nan nan nan nan nan nan nan nan nan nan nan nan nan nan nan nan nan nan nan nan nan nan nan nan nan nan nan nan nan nan nan
290 290 290 290 nan nan nan nan nan nan nan nan nan nan nan nan nan nan nan nan nan nan nan nan nan nan nan nan nan nan nan nan nan nan nan nan nan nan nan nan nan nan nan nan nan nan nan nan nan nan nan nan nan nan nan nan nan nan nan nan nan nan nan nan nan nan nan nan nan nan nan nan nan nan nan nan nan nan nan nan nan nan nan nan nan
287 288 288 nan nan nan nan nan nan nan nan nan nan nan nan nan nan nan nan nan nan nan nan nan nan nan nan nan nan nan nan nan nan nan nan nan nan nan nan nan nan nan nan nan nan nan nan nan nan nan nan nan nan nan nan nan nan nan nan nan nan nan nan nan nan nan nan nan nan nan nan nan nan nan nan nan nan nan nan nan nan nan nan nan nan